| time (UTC) | temp F | wind direction | speed MPH | gust MPH | rain 1hr in | rain 24hr in | rain mn in | humidity % | barometer mb |
| 20260510083005 | 54 | 346 | 0.0 | 2.0 | 0.00 | 0.00 | 0.00 | 92 | 1011.4 |
| 20260510081510 | 54 | 346 | 0.0 | 1.0 | 0.00 | 0.00 | 0.00 | 92 | 1011.4 |
| 20260510080004 | 54 | 346 | 0.0 | 0.0 | 0.00 | 0.00 | 0.00 | 91 | 1011.1 |
| 20260510074504 | 54 | 346 | 0.0 | 1.0 | 0.00 | 0.00 | 0.00 | 91 | 1011.0 |
| 20260510073005 | 55 | 346 | 0.0 | 2.0 | 0.00 | 0.00 | 0.00 | 91 | 1010.8 |
| 20260510071505 | 55 | 346 | 0.0 | 4.0 | 0.00 | 0.00 | 0.00 | 90 | 1010.7 |
| 20260510070007 | 55 | 279 | 0.0 | 2.0 | 0.00 | 0.00 | 0.00 | 90 | 1010.7 |
| 20260510064505 | 56 | 279 | 0.0 | 0.0 | 0.00 | 0.00 | 0.00 | 89 | 1010.4 |
| 20260510063004 | 56 | 279 | 0.0 | 0.0 | 0.00 | 0.00 | 0.00 | 89 | 1010.5 |
| 20260510061511 | 56 | 279 | 0.0 | 2.0 | 0.00 | 0.00 | 0.00 | 88 | 1010.4 |
| 20260510060006 | 56 | 279 | 0.0 | 2.0 | 0.00 | 0.00 | 0.00 | 87 | 1010.4 |
| 20260510054514 | 57 | 279 | 1.0 | 2.0 | 0.00 | 0.00 | 0.00 | 87 | 1010.4 |
| 20260510053005 | 57 | 279 | 0.0 | 0.0 | 0.00 | 0.00 | 0.00 | 86 | 1010.6 |
| 20260510051516 | 57 | 279 | 0.0 | 2.0 | 0.00 | 0.00 | 0.00 | 85 | 1010.5 |
| 20260510050005 | 57 | 279 | 1.0 | 2.0 | 0.00 | 0.00 | 0.00 | 85 | 1010.5 |
| 20260510044507 | 58 | 279 | 1.0 | 2.0 | 0.00 | 0.00 | 0.00 | 85 | 1010.5 |
| 20260510043004 | 58 | 279 | 0.0 | 1.0 | 0.00 | 0.00 | 0.00 | 86 | 1010.4 |
| 20260510041505 | 58 | 279 | 0.0 | 2.0 | 0.00 | 0.00 | 0.00 | 84 | 1010.4 |
| 20260510040010 | 59 | 279 | 0.0 | 1.0 | 0.00 | 0.00 | 0.00 | 82 | 1010.5 |
| 20260510034508 | 59 | 279 | 0.0 | 1.0 | 0.00 | 0.00 | 0.00 | 83 | 1010.4 |
| 20260510033007 | 59 | 279 | 0.0 | 0.0 | 0.00 | 0.00 | 0.00 | 82 | 1010.2 |
| 20260510031505 | 59 | 279 | 0.0 | 0.0 | 0.00 | 0.00 | 0.00 | 81 | 1010.0 |
| 20260510030003 | 60 | 279 | 0.0 | 1.0 | 0.00 | 0.00 | 0.00 | 78 | 1010.0 |
| 20260510024512 | 61 | 279 | 0.0 | 0.0 | 0.00 | 0.00 | 0.00 | 78 | 1009.9 |
| 20260510023012 | 61 | 279 | 0.0 | 0.0 | 0.00 | 0.00 | 0.00 | 76 | 1009.8 |
| 20260510021514 | 62 | 279 | 0.0 | 0.0 | 0.00 | 0.00 | 0.00 | 74 | 1009.8 |
| 20260510020005 | 62 | 279 | 0.0 | 0.0 | 0.00 | 0.00 | 0.00 | 72 | 1009.5 |
| 20260510014507 | 63 | 279 | 0.0 | 1.0 | 0.00 | 0.00 | 0.00 | 72 | 1009.4 |
| 20260510013007 | 64 | 279 | 0.0 | 0.0 | 0.00 | 0.00 | 0.00 | 70 | 1009.1 |
| 20260510011520 | 65 | 279 | 0.0 | 0.0 | 0.00 | 0.00 | 0.00 | 67 | 1008.9 |
| 20260510010004 | 67 | 279 | 0.0 | 0.0 | 0.00 | 0.00 | 0.00 | 64 | 1008.8 |
| 20260510004506 | 68 | 279 | 0.0 | 0.0 | 0.00 | 0.00 | 0.00 | 62 | 1008.7 |
| 20260510003014 | 70 | 133 | 0.0 | 0.0 | 0.00 | 0.00 | 0.00 | 57 | 1008.5 |
| 20260510001508 | 71 | 75 | 0.0 | 1.0 | 0.00 | 0.00 | 0.00 | 55 | 1008.4 |
| 20260510000014 | 72 | 234 | 1.0 | 3.0 | 0.00 | 0.00 | 0.00 | 54 | 1008.3 |
| 20260509234508 | 72 | 140 | 2.0 | 6.0 | 0.00 | 0.00 | 0.00 | 52 | 1008.1 |
| 20260509233011 | 73 | 258 | 1.0 | 6.0 | 0.00 | 0.00 | 0.00 | 54 | 1008.0 |
| 20260509231503 | 74 | 128 | 2.0 | 9.0 | 0.00 | 0.00 | 0.00 | 50 | 1008.0 |
| 20260509230003 | 74 | 196 | 0.0 | 2.0 | 0.00 | 0.00 | 0.00 | 52 | 1008.0 |
| 20260509224502 | 74 | 125 | 0.0 | 4.0 | 0.00 | 0.00 | 0.00 | 52 | 1007.9 |
| 20260509223010 | 73 | 136 | 2.0 | 7.0 | 0.00 | 0.00 | 0.00 | 52 | 1008.0 |
| 20260509221503 | 74 | 113 | 3.0 | 14.0 | 0.00 | 0.00 | 0.00 | 52 | 1008.0 |
| 20260509220003 | 74 | 137 | 4.0 | 13.0 | 0.00 | 0.00 | 0.00 | 48 | 1008.0 |
| 20260509214505 | 74 | 143 | 5.0 | 11.0 | 0.00 | 0.00 | 0.00 | 49 | 1008.0 |
| 20260509213003 | 73 | 153 | 7.0 | 14.0 | 0.00 | 0.00 | 0.00 | 48 | 1008.0 |
| 20260509211502 | 73 | 188 | 6.0 | 14.0 | 0.00 | 0.00 | 0.00 | 49 | 1007.8 |
| 20260509210008 | 74 | 145 | 7.0 | 15.0 | 0.00 | 0.00 | 0.00 | 48 | 1007.7 |
| 20260509204503 | 74 | 146 | 8.0 | 17.0 | 0.00 | 0.00 | 0.00 | 48 | 1007.7 |
| 20260509203003 | 73 | 136 | 7.0 | 14.0 | 0.00 | 0.00 | 0.00 | 51 | 1007.7 |
| 20260509201503 | 73 | 151 | 4.0 | 14.0 | 0.00 | 0.00 | 0.00 | 52 | 1007.6 |
| 20260509200004 | 73 | 132 | 6.0 | 12.0 | 0.00 | 0.00 | 0.00 | 51 | 1007.7 |
| 20260509194504 | 73 | 158 | 6.0 | 13.0 | 0.00 | 0.00 | 0.00 | 54 | 1008.1 |
| 20260509193004 | 72 | 162 | 7.0 | 14.0 | 0.00 | 0.00 | 0.00 | 54 | 1008.3 |
| 20260509191510 | 72 | 167 | 7.0 | 15.0 | 0.00 | 0.00 | 0.00 | 54 | 1008.5 |
| 20260509190014 | 72 | 112 | 3.0 | 15.0 | 0.00 | 0.00 | 0.00 | 56 | 1008.7 |
| 20260509184508 | 72 | 168 | 8.0 | 19.0 | 0.00 | 0.00 | 0.00 | 54 | 1008.8 |
| 20260509183005 | 71 | 155 | 12.0 | 20.0 | 0.00 | 0.00 | 0.00 | 54 | 1009.0 |
| 20260509181503 | 70 | 199 | 5.0 | 13.0 | 0.00 | 0.00 | 0.00 | 59 | 1009.3 |
| 20260509180012 | 69 | 167 | 8.0 | 15.0 | 0.00 | 0.00 | 0.00 | 61 | 1009.4 |
| 20260509174517 | 69 | 167 | 7.0 | 12.0 | 0.00 | 0.00 | 0.00 | 62 | 1009.7 |
| 20260509173013 | 68 | 144 | 9.0 | 14.0 | 0.00 | 0.00 | 0.00 | 63 | 1009.6 |
| 20260509171503 | 68 | 149 | 6.0 | 14.0 | 0.00 | 0.00 | 0.00 | 63 | 1010.0 |
| 20260509170008 | 68 | 175 | 7.0 | 16.0 | 0.00 | 0.00 | 0.00 | 63 | 1010.0 |
| 20260509164504 | 67 | 134 | 6.0 | 16.0 | 0.00 | 0.00 | 0.00 | 65 | 1010.2 |
| 20260509163020 | 67 | 180 | 6.0 | 22.0 | 0.00 | 0.00 | 0.00 | 64 | 1010.2 |
| 20260509161522 | 67 | 156 | 10.0 | 17.0 | 0.00 | 0.00 | 0.00 | 62 | 1010.2 |
| 20260509160006 | 67 | 169 | 10.0 | 16.0 | 0.00 | 0.00 | 0.00 | 61 | 1010.3 |
| 20260509154512 | 67 | 165 | 9.0 | 16.0 | 0.00 | 0.00 | 0.00 | 63 | 1010.2 |
| 20260509153012 | 66 | 162 | 8.0 | 18.0 | 0.00 | 0.00 | 0.00 | 64 | 1010.4 |
| 20260509151507 | 65 | 132 | 9.0 | 19.0 | 0.00 | 0.00 | 0.00 | 64 | 1010.7 |
| 20260509150027 | 64 | 118 | 4.0 | 10.0 | 0.00 | 0.00 | 0.00 | 66 | 1010.6 |
| 20260509144514 | 63 | 131 | 7.0 | 11.0 | 0.00 | 0.00 | 0.00 | 65 | 1010.7 |
| 20260509143023 | 62 | 140 | 6.0 | 16.0 | 0.00 | 0.00 | 0.00 | 66 | 1011.0 |
| 20260509141513 | 62 | 163 | 7.0 | 13.0 | 0.00 | 0.00 | 0.00 | 67 | 1011.3 |
| 20260509140004 | 61 | 89 | 2.0 | 10.0 | 0.00 | 0.00 | 0.00 | 68 | 1011.3 |
| 20260509134508 | 61 | 126 | 6.0 | 14.0 | 0.00 | 0.00 | 0.00 | 70 | 1011.6 |
| 20260509133007 | 60 | 152 | 4.0 | 11.0 | 0.00 | 0.00 | 0.00 | 71 | 1011.7 |
| 20260509131506 | 59 | 167 | 3.0 | 7.0 | 0.00 | 0.00 | 0.00 | 72 | 1011.6 |
| 20260509130004 | 58 | 126 | 3.0 | 12.0 | 0.00 | 0.00 | 0.00 | 71 | 1011.7 |
| 20260509124503 | 57 | 155 | 3.0 | 9.0 | 0.00 | 0.00 | 0.00 | 72 | 1011.7 |
| 20260509123004 | 57 | 165 | 2.0 | 12.0 | 0.00 | 0.00 | 0.00 | 73 | 1011.7 |
| 20260509121523 | 57 | 155 | 5.0 | 11.0 | 0.00 | 0.00 | 0.00 | 72 | 1011.7 |
| 20260509120003 | 56 | 143 | 5.0 | 13.0 | 0.00 | 0.00 | 0.00 | 74 | 1011.7 |
| 20260509114503 | 56 | 171 | 4.0 | 10.0 | 0.00 | 0.00 | 0.00 | 75 | 1011.8 |
| 20260509113004 | 55 | 178 | 3.0 | 8.0 | 0.00 | 0.00 | 0.00 | 72 | 1011.7 |
| 20260509111508 | 55 | 141 | 2.0 | 5.0 | 0.00 | 0.00 | 0.00 | 73 | 1011.7 |
| 20260509110004 | 55 | 140 | 3.0 | 8.0 | 0.00 | 0.00 | 0.00 | 72 | 1011.7 |
| 20260509104510 | 55 | 161 | 4.0 | 8.0 | 0.00 | 0.00 | 0.00 | 70 | 1011.5 |
| 20260509103003 | 55 | 133 | 3.0 | 7.0 | 0.00 | 0.00 | 0.00 | 68 | 1011.5 |
| 20260509101518 | 55 | 136 | 1.0 | 4.0 | 0.00 | 0.00 | 0.00 | 67 | 1011.5 |
| 20260509100006 | 55 | 125 | 0.0 | 3.0 | 0.00 | 0.00 | 0.00 | 69 | 1011.3 |
| 20260509094516 | 55 | 125 | 0.0 | 3.0 | 0.00 | 0.00 | 0.00 | 69 | 1011.4 |
| 20260509093003 | 55 | 132 | 1.0 | 8.0 | 0.00 | 0.00 | 0.00 | 69 | 1011.5 |
| 20260509091506 | 55 | 144 | 2.0 | 6.0 | 0.00 | 0.00 | 0.00 | 68 | 1011.5 |
| 20260509090012 | 55 | 130 | 2.0 | 6.0 | 0.00 | 0.00 | 0.00 | 67 | 1011.6 |
| 20260509084517 | 55 | 140 | 2.0 | 4.0 | 0.00 | 0.00 | 0.00 | 67 | 1011.8 |